TimeEST,TemperatureF,Dew PointF,Humidity,Sea Level PressureIn,VisibilityMPH,Wind Direction,Wind SpeedMPH,Gust SpeedMPH,PrecipitationIn,Events,Conditions,WindDirDegrees,DateUTC
12:56 AM,28.9,10.0,45,29.93,10.0,WNW,9.2,-,N/A,,Clear,300,2013-01-21 05:56:00
1:56 AM,28.9,9.0,43,29.97,10.0,West,8.1,-,N/A,,Clear,280,2013-01-21 06:56:00
2:56 AM,28.0,9.0,45,29.99,10.0,WNW,8.1,17.3,N/A,,Clear,290,2013-01-21 07:56:00
3:56 AM,28.0,8.1,43,30.00,10.0,NW,9.2,23.0,N/A,,Clear,310,2013-01-21 08:56:00
4:56 AM,27.0,8.1,45,30.02,10.0,WNW,8.1,17.3,N/A,,Clear,300,2013-01-21 09:56:00
5:56 AM,25.0,7.0,46,30.04,10.0,WNW,8.1,-,N/A,,Clear,300,2013-01-21 10:56:00
6:56 AM,24.1,6.1,46,30.06,10.0,WNW,6.9,-,N/A,,Clear,290,2013-01-21 11:56:00
7:56 AM,25.0,6.1,45,30.09,10.0,West,9.2,-,N/A,,Clear,260,2013-01-21 12:56:00
8:56 AM,27.0,5.0,39,30.09,10.0,NW,5.8,19.6,N/A,,Clear,320,2013-01-21 13:56:00
9:56 AM,28.9,5.0,36,30.09,10.0,Variable,6.9,-,N/A,,Clear,0,2013-01-21 14:56:00
10:56 AM,28.9,6.1,38,30.08,10.0,North,4.6,-,N/A,,Scattered Clouds,350,2013-01-21 15:56:00
11:56 AM,30.0,7.0,38,30.04,10.0,Calm,Calm,-,N/A,,Overcast,0,2013-01-21 16:56:00
12:56 PM,30.9,9.0,40,30.01,10.0,SSW,9.2,-,N/A,,Clear,210,2013-01-21 17:56:00
1:56 PM,30.0,10.9,45,29.99,10.0,SSW,6.9,-,N/A,,Mostly Cloudy,210,2013-01-21 18:56:00
2:56 PM,28.9,10.9,47,29.99,10.0,SSW,6.9,-,N/A,,Overcast,210,2013-01-21 19:56:00
3:56 PM,28.0,12.9,53,29.97,10.0,South,4.6,-,N/A,,Overcast,190,2013-01-21 20:56:00
4:56 PM,28.0,18.0,66,29.94,8.0,South,5.8,-,0.00,Snow,Light Snow,170,2013-01-21 21:56:00
5:22 PM,26.6,19.4,74,29.93,4.0,South,4.6,-,0.00,Snow,Light Snow,180,2013-01-21 22:22:00
5:34 PM,26.6,21.2,80,29.92,1.8,South,3.5,-,0.00,Snow,Light Snow,170,2013-01-21 22:34:00
5:56 PM,27.0,23.0,85,29.92,1.5,South,3.5,-,0.00,Snow,Light Snow,170,2013-01-21 22:56:00
6:12 PM,26.6,24.8,93,29.91,1.5,Calm,Calm,-,0.00,Snow,Light Snow,0,2013-01-21 23:12:00
6:35 PM,28.4,24.8,86,29.91,1.5,SSE,3.5,-,0.01,Snow,Light Snow,150,2013-01-21 23:35:00
6:56 PM,28.0,26.1,92,29.91,1.5,Calm,Calm,-,0.03,Snow,Light Snow,0,2013-01-21 23:56:00
7:03 PM,28.4,26.6,93,29.91,0.8,Calm,Calm,-,0.00,Snow,Light Snow,0,2013-01-22 00:03:00
7:11 PM,28.4,26.6,93,29.91,1.0,Calm,Calm,-,0.00,Snow,Light Snow,0,2013-01-22 00:11:00
7:24 PM,28.4,26.6,93,29.90,0.8,Calm,Calm,-,0.01,Snow,Light Snow,0,2013-01-22 00:24:00
7:47 PM,28.4,26.6,93,29.89,1.2,ENE,3.5,-,0.02,Snow,Light Snow,60,2013-01-22 00:47:00
7:56 PM,28.0,26.1,92,29.89,1.2,Calm,Calm,-,0.03,Snow,Light Snow,0,2013-01-22 00:56:00
8:28 PM,28.4,26.6,93,29.87,1.0,NE,4.6,-,0.01,Snow,Light Snow,40,2013-01-22 01:28:00
8:35 PM,28.4,26.6,93,29.87,0.8,NE,4.6,-,0.01,Snow,Light Snow,40,2013-01-22 01:35:00
8:54 PM,28.4,26.6,93,29.87,1.0,NE,3.5,-,0.03,Snow,Light Snow,40,2013-01-22 01:54:00
8:56 PM,28.0,26.1,92,29.88,1.0,NE,4.6,-,0.03,Snow,Light Snow,40,2013-01-22 01:56:00
9:25 PM,28.4,26.6,93,29.85,1.0,NNE,3.5,-,0.01,Snow,Light Snow,30,2013-01-22 02:25:00
9:56 PM,28.0,26.1,92,29.83,2.0,North,4.6,-,0.02,Snow,Light Snow,10,2013-01-22 02:56:00
10:16 PM,28.4,26.6,93,29.80,1.2,NNE,3.5,-,0.00,Snow,Light Snow,20,2013-01-22 03:16:00
10:43 PM,28.4,28.4,100,29.79,1.2,North,4.6,-,0.01,Snow,Light Snow,10,2013-01-22 03:43:00
10:56 PM,30.0,28.0,92,29.78,3.0,North,5.8,-,0.01,Snow,Light Snow,360,2013-01-22 03:56:00
11:21 PM,30.2,28.4,93,29.76,5.0,Variable,4.6,-,0.00,Snow,Light Snow,0,2013-01-22 04:21:00
11:34 PM,30.2,28.4,93,29.76,9.0,North,4.6,-,0.00,,Overcast,350,2013-01-22 04:34:00
11:42 PM,30.2,28.4,93,29.76,10.0,NNE,4.6,-,0.00,,Overcast,30,2013-01-22 04:42:00
11:56 PM,28.9,27.0,92,29.75,10.0,NNE,6.9,-,0.00,,Overcast,20,2013-01-22 04:56:00